Location: Linton
(52.0940°N, 0.2850°E)
Time: 23:01:55
(UTC+00:00)

ISS - Pass Details

Date: 14 November 2017
Orbit: 401 x 407 km, 51.6° (Epoch: 18 November)

Event Time Altitude Azimuth Distance (km) Brightness Sun altitude
Exits shadow 06:18:12 10° 257° (WSW) 1,485 -1.5 -9.2°
Reaches altitude 10° 06:18:19 10° 255° (WSW) 1,455 -1.5 -9.1°
Maximum altitude 06:20:16 15° 218° (SW) 1,190 -1.7 -8.9°
Drops below altitude 10° 06:22:12 10° 182° (S) 1,450 -0.8 -8.6°
Sets 06:24:53 0° 157° (SSE) 2,304 0.7 -8.2°
